Location: Coopersdale
(40.3556°N, 78.9372°W)
Time: 03:26:14
(UTC+00:00)

Tiros 1 despin weight - Pass Details

Date: 19 January 2021
Orbit: 593 x 642 km, 48.2° (Epoch: 02 March)

Event Time Altitude Azimuth Distance (km) Brightness Sun altitude
Rises 01:10:33 0° 295° (WNW) 2,843 ? -32.6°
Reaches altitude 10° 01:13:03 10° 305° (NW) 1,934 ? -33.1°
Enters shadow 01:14:09 16° 314° (NW) 1,576 ? -33.3°
Maximum altitude 01:17:02 31° 9° (N) 1,039 - -33.8°
Drops below altitude 10° 01:20:59 10° 73° (ENE) 1,923 - -34.6°
Sets 01:23:28 0° 83° (E) 2,823 - -35.0°
